Overview Statistics Trail Chart Weather Telemetry Raw packets
 

This is the latest recevied weather packets stored in our database for station/object OE3CJB-13. If no packets are shown the sender has not sent any weather packets the latest 10 day(s).

<< 9 10 11 12 13 14 15 >>
Time Temp. Humidity Pressure Rain* Wind** Luminosity Snow
1788472867 20° C 55% 1192.5 hPa 0 mm - - -
1788471965 20.56° C 54% 1192.3 hPa 0 mm - - -
1788471022 20.56° C 52% 1191.8 hPa 0 mm - - -
1788470158 20.56° C 50% 1193.2 hPa 0 mm - - -
1788469248 20.56° C 48% 1191.6 hPa 0 mm - - -
1788468333 21.11° C 49% 1191.6 hPa 0 mm - - -
1788467421 21.11° C 47% 1192.4 hPa 0 mm - - -
1788466565 21.11° C 45% 1192.4 hPa 0 mm - - -
1788465664 21.67° C 41% 1191.7 hPa 0 mm - - -
1788464734 22.22° C 39% 1192.4 hPa 0 mm - - -
1788463821 22.22° C 38% 1192.1 hPa 0 mm - - -
1788462958 22.78° C 37% 1192.1 hPa 0 mm - - -
1788462067 22.78° C 37% 1191.9 hPa 0 mm - - -
1788461134 23.33° C 32% 1191 hPa 0 mm - - -
1788460222 23.89° C 29% 1190.7 hPa 0 mm - - -
1788459358 23.89° C 28% 1189 hPa 0 mm - - -
1788458449 24.44° C 27% 1189.6 hPa 0 mm - - -
1788457533 24.44° C 26% 1188.8 hPa 0 mm - - -
1788456621 24.44° C 24% 1188 hPa 0 mm - - -
1788455765 25° C 24% 1188.8 hPa 0 mm - - -
1788454847 25° C 23% 1186.4 hPa 0 mm - - -
1788453934 25.56° C 21% 1185 hPa 0 mm - - -
1788453021 25.56° C 21% 1184.2 hPa 0 mm - - -
1788452158 26.11° C 21% 1182.6 hPa 0 mm - - -
1788451267 26.11° C 22% 1183.3 hPa 0 mm - - -

* Rain latest hour (hover to see other rain measurements)
** Current wind speed in m/s (hover to see current wind gust speed)